Location: Cambridge (historical)
(38.6883°N, 119.0140°W)
Time: 17:01:00
(UTC+00:00)

Cosmos 1315 Rocket - Pass Details

Date: 29 October 2020
Orbit: 530 x 567 km, 81.2° (Epoch: 22 November)

Event Time Altitude Azimuth Distance (km) Brightness Sun altitude
Rises 13:17:44 0° 353° (N) 2,765 6.3 -12.8°
Reaches altitude 10° 13:19:56 10° 356° (N) 1,868 5.4 -12.3°
Maximum altitude 13:24:02 70° 80° (E) 606 3.2 -11.5°
Drops below altitude 10° 13:28:08 10° 165° (SSE) 1,859 5.8 -10.8°
Sets 13:30:19 0° 167° (SSE) 2,750 6.7 -10.3°
